Regional Weather Roundup
Issued by NWS

Home | Current Version | Previous Version | Text Only | Print | Product List | Glossary On
Versions: 1 2 3 4 5 6 7 8 9 10 11 12 13 14 15 16 17 18 19 20 21 22 23 24 25 26 27 28 29 30 31 32 33 34 35 36 37 38 39 40 41 42 43 44 45 46 47 48 49 50
000
ASUS45 KREV 280510
RWRNV
NEVADA REGIONAL WEATHER ROUNDUP
NATIONAL WEATHER SERVICE RENO NV
1000 PM PDT THU AUG 27 2015

NOTE: "FAIR" INDICATES FEW OR NO CLOUDS BELOW 12,000 FEET WITH NO
SIGNIFICANT WEATHER AND/OR OBSTRUCTIONS TO VISIBILITY.

NVZ001-003-004-280600-
WESTERN NEVADA

CITY           SKY/WX    TMP DP  RH WIND       PRES   REMARKS
RENO           MOCLDY    79  41  25 W9G22     30.19R
CARSON CITY    FAIR      75  39  27 W6        30.21R
MINDEN         FAIR      72  41  33 W9        30.22R
SLIDE MTN        N/A     54  32  43 W14         N/A
PYRAMID LAKE     N/A     82 N/A N/A W3          N/A
FALLON         MOCLDY    80  38  22 W9        30.11R
LOVELOCK       CLEAR     76  37  24 W6        30.10S
HAWTHORNE      CLEAR     81  37  21 N9        30.12R
$$

NVZ002-CAZ072-073-280600-
NORTHERN AND CENTRAL SIERRA

CITY           SKY/WX    TMP DP  RH WIND       PRES   REMARKS
S. LAKE TAHOE  PTCLDY    61  39  44 S3        30.34R
TRUCKEE        PTCLDY    55  37  50 CALM      30.33R
SQUAW VLY 8000   N/A     57  37  47 W6          N/A
SUSANVILLE     CLEAR     73  39  29 W3        30.18S
BLUE CANYON    MOCLDY    69  37  30 NE3       30.29R
MAMMOTH LAKES  FAIR      61  32  33 CALM      30.38R
BRIDGEPORT     FAIR      62  33  33 CALM      30.34R
$$

NVZ030-031-036-280600-
NORTHERN NEVADA

CITY           SKY/WX    TMP DP  RH WIND       PRES   REMARKS
ELKO           PTCLDY    70  33  25 CALM      30.20R
WINNEMUCCA     PTCLDY    64  31  28 CALM      30.13S
WENDOVER       PTCLDY    73  39  29 W6        30.16S
$$

NVZ035-037-280600-
CENTRAL NEVADA

CITY           SKY/WX    TMP DP  RH WIND       PRES   REMARKS
ELY            CLEAR     64  43  46 S13       30.32R
EUREKA           N/A     59  39  47 SE6       30.27R
$$

NVZ013-014-280600-
SOUTH CENTRAL NEVADA

CITY           SKY/WX    TMP DP  RH WIND       PRES   REMARKS
TONOPAH        MOCLDY    76  42  29 SE7       30.23R
$$

NVZ017-020-022-280600-
SOUTHERN NEVADA

CITY           SKY/WX    TMP DP  RH WIND       PRES   REMARKS
LAS VEGAS      PTCLDY    93  47  20 W6        29.94R
N. LAS VEGAS   CLEAR     90  49  24 N5        29.97R
NELLIS AFB     CLEAR     91  50  24 NE2       29.94R
HENDERSON      CLEAR     88  55  32 S6        30.02R
MERCURY        CLEAR     86  47  25 E9        30.04R
$$



USA.gov is the U.S. government's official web portal to all federal, state and local government web resources and services.